Location: Dammartin
(48.9032°N, 1.6195°E)
Time: 14:10:59
(UTC+00:00)

YUBILEINY - Pass Details

Date: 06 December 2023
Orbit: 1479 x 1508 km, 82.5° (Epoch: 02 March)

Event Time Altitude Azimuth Distance (km) Brightness Sun altitude
Rises 06:42:49 0° 115° (ESE) 4,639 ? -7.7°
Reaches altitude 10° 06:48:11 10° 88° (E) 3,659 ? -6.9°
Maximum altitude 06:51:07 12° 68° (ENE) 3,493 ? -6.5°
Drops below altitude 10° 06:54:03 10° 48° (NE) 3,659 ? -6.1°
Sets 06:59:23 0° 21° (NNE) 4,638 ? -5.3°
